| time (UTC) | temp F | wind direction | speed MPH | gust MPH | rain 1hr in | rain 24hr in | rain mn in | humidity % | barometer mb |
| 20260507194600 | 56 | 308 | 2.0 | 8.0 | 0.00 | 0.24 | 0.01 | 40 | 1008.2 |
| 20260507193014 | 55 | 281 | 3.0 | 11.0 | 0.00 | 0.24 | 0.01 | 39 | 1008.3 |
| 20260507191608 | 55 | 277 | 2.0 | 10.0 | 0.00 | 0.24 | 0.01 | 42 | 1008.3 |
| 20260507190028 | 54 | 350 | 1.0 | 12.0 | 0.00 | 0.24 | 0.01 | 42 | 1008.4 |
| 20260507184624 | 53 | 11 | 1.0 | 10.0 | 0.00 | 0.31 | 0.01 | 42 | 1008.5 |
| 20260507183049 | 54 | 299 | 2.0 | 10.0 | 0.00 | 0.31 | 0.01 | 40 | 1008.8 |
| 20260507181504 | 54 | 276 | 1.0 | 13.0 | 0.00 | 0.31 | 0.01 | 43 | 1008.8 |
| 20260507174523 | 54 | 296 | 3.0 | 9.0 | 0.00 | 0.36 | 0.01 | 41 | 1009.3 |
| 20260507173116 | 56 | 350 | 1.0 | 11.0 | 0.00 | 0.36 | 0.01 | 40 | 1009.3 |
| 20260507171534 | 55 | 277 | 2.0 | 9.0 | 0.00 | 0.36 | 0.01 | 42 | 1009.1 |
| 20260507170126 | 55 | 232 | 1.0 | 10.0 | 0.00 | 0.36 | 0.01 | 43 | 1009.0 |
| 20260507164544 | 55 | 271 | 4.0 | 10.0 | 0.00 | 0.39 | 0.01 | 41 | 1009.1 |
| 20260507161552 | 53 | 309 | 4.0 | 10.0 | 0.00 | 0.39 | 0.01 | 43 | 1009.6 |
| 20260507160032 | 52 | 281 | 3.0 | 10.0 | 0.00 | 0.39 | 0.01 | 43 | 1009.9 |
| 20260507154602 | 52 | 277 | 5.0 | 14.0 | 0.00 | 0.39 | 0.01 | 42 | 1010.1 |
| 20260507153019 | 51 | 301 | 3.0 | 9.0 | 0.00 | 0.39 | 0.01 | 47 | 1010.1 |
| 20260507151615 | 51 | 340 | 1.0 | 13.0 | 0.00 | 0.39 | 0.01 | 44 | 1010.1 |
| 20260507150040 | 51 | 5 | 3.0 | 11.0 | 0.00 | 0.39 | 0.01 | 46 | 1010.1 |
| 20260507144628 | 49 | 204 | 2.0 | 8.0 | 0.00 | 0.39 | 0.01 | 49 | 1010.2 |
| 20260507143043 | 48 | 30 | 2.0 | 10.0 | 0.00 | 0.39 | 0.01 | 50 | 1010.1 |
| 20260507141512 | 48 | 13 | 2.0 | 7.0 | 0.00 | 0.39 | 0.01 | 51 | 1010.1 |
| 20260507140107 | 47 | 275 | 2.0 | 13.0 | 0.00 | 0.39 | 0.01 | 54 | 1010.3 |
| 20260507134515 | 47 | 327 | 2.0 | 10.0 | 0.00 | 0.39 | 0.01 | 59 | 1010.0 |
| 20260507133116 | 46 | 334 | 4.0 | 13.0 | 0.00 | 0.39 | 0.01 | 57 | 1009.9 |
| 20260507130118 | 44 | 284 | 2.0 | 9.0 | 0.00 | 0.39 | 0.01 | 65 | 1009.8 |
| 20260507124545 | 44 | 286 | 2.0 | 8.0 | 0.00 | 0.39 | 0.01 | 68 | 1009.8 |
| 20260507123122 | 43 | 262 | 2.0 | 8.0 | 0.00 | 0.39 | 0.01 | 70 | 1009.8 |
| 20260507121546 | 43 | 332 | 3.0 | 10.0 | 0.00 | 0.39 | 0.01 | 71 | 1009.9 |
| 20260507120007 | 42 | 324 | 3.0 | 10.0 | 0.00 | 0.39 | 0.01 | 71 | 1009.9 |
| 20260507114607 | 41 | 309 | 0.0 | 9.0 | 0.00 | 0.39 | 0.01 | 69 | 1009.6 |
| 20260507113011 | 41 | 322 | 1.0 | 7.0 | 0.00 | 0.39 | 0.01 | 65 | 1009.4 |
| 20260507111630 | 41 | 271 | 2.0 | 7.0 | 0.00 | 0.39 | 0.01 | 58 | 1009.5 |
| 20260507110058 | 41 | 360 | 0.0 | 10.0 | 0.00 | 0.39 | 0.01 | 46 | 1009.4 |
| 20260507104515 | 40 | 302 | 0.0 | 3.0 | 0.00 | 0.39 | 0.01 | 20 | 1009.2 |
| 20260507103111 | 40 | 332 | 1.0 | 5.0 | 0.00 | 0.39 | 0.01 | 14 | 1008.9 |
| 20260507101529 | 40 | 304 | 0.0 | 3.0 | 0.00 | 0.39 | 0.01 | 10 | 1008.6 |
| 20260507094546 | 41 | 333 | 0.0 | 3.0 | 0.00 | 0.39 | 0.01 | 1 | 1008.4 |
| 20260507093003 | 41 | 13 | 1.0 | 3.0 | 0.00 | 0.39 | 0.01 | 1 | 1008.2 |
| 20260507091555 | 42 | 229 | 1.0 | 6.0 | 0.00 | 0.39 | 0.01 | 1 | 1008.5 |
| 20260507090015 | 42 | 360 | 1.0 | 3.0 | 0.00 | 0.39 | 0.01 | 1 | 1008.4 |
| 20260507084611 | 42 | 360 | 0.0 | 6.0 | 0.00 | 0.39 | 0.01 | 1 | 1008.6 |
| 20260507083033 | 42 | 297 | 1.0 | 8.0 | 0.00 | 0.39 | 0.01 | 1 | 1008.6 |
| 20260507081623 | 42 | 360 | 0.0 | 4.0 | 0.00 | 0.39 | 0.01 | 1 | 1008.3 |
| 20260507080047 | 43 | 284 | 1.0 | 5.0 | 0.00 | 0.39 | 0.01 | 1 | 1008.9 |
| 20260507074508 | 43 | 302 | 0.0 | 2.0 | 0.00 | 0.39 | 0.01 | 1 | 1008.8 |
| 20260507073100 | 43 | 302 | 0.0 | 3.0 | 0.01 | 0.39 | 0.01 | 1 | 1008.5 |
| 20260507071519 | 44 | 360 | 0.0 | 2.0 | 0.01 | 0.39 | 0.01 | 1 | 1008.4 |
| 20260507070118 | 44 | 301 | 0.0 | 3.0 | 0.01 | 0.39 | 0.01 | 1 | 1008.0 |
| 20260507064529 | 44 | 301 | 0.0 | 1.0 | 0.01 | 0.39 | 0.01 | 1 | 1007.7 |
| 20260507063129 | 44 | 301 | 1.0 | 4.0 | 0.00 | 0.38 | 0.00 | 1 | 1008.1 |
| 20260507061546 | 44 | 309 | 0.0 | 3.0 | 0.00 | 0.38 | 0.00 | 1 | 1007.8 |
| 20260507060004 | 44 | 321 | 0.0 | 2.0 | 0.00 | 0.38 | 0.00 | 1 | 1007.5 |
| 20260507054559 | 44 | 313 | 0.0 | 3.0 | 0.00 | 0.38 | 0.00 | 1 | 1007.8 |
| 20260507053025 | 44 | 309 | 0.0 | 3.0 | 0.00 | 0.38 | 0.00 | 1 | 1008.0 |
| 20260507051615 | 44 | 360 | 0.0 | 4.0 | 0.00 | 0.38 | 0.00 | 1 | 1008.1 |
| 20260507050036 | 44 | 323 | 1.0 | 6.0 | 0.00 | 0.38 | 0.00 | 1 | 1007.9 |
| 20260507044629 | 45 | 267 | 0.0 | 4.0 | 0.00 | 0.38 | 0.00 | 1 | 1008.1 |
| 20260507043040 | 45 | 304 | 1.0 | 5.0 | 0.00 | 0.38 | 0.00 | 1 | 1008.4 |
| 20260507041503 | 45 | 317 | 0.0 | 3.0 | 0.00 | 0.38 | 0.00 | 1 | 1007.9 |
| 20260507040051 | 45 | 309 | 0.0 | 6.0 | 0.00 | 0.38 | 0.00 | 1 | 1007.5 |
| 20260507034501 | 45 | 360 | 0.0 | 8.0 | 0.00 | 0.38 | 0.38 | 1 | 1007.7 |
| 20260507031512 | 46 | 285 | 1.0 | 6.0 | 0.01 | 0.38 | 0.38 | 1 | 1007.9 |
| 20260507030100 | 46 | 360 | 0.0 | 5.0 | 0.01 | 0.38 | 0.38 | 1 | 1008.1 |
| 20260507024525 | 46 | 304 | 1.0 | 4.0 | 0.01 | 0.38 | 0.38 | 1 | 1008.0 |
| 20260507023117 | 46 | 309 | 1.0 | 4.0 | 0.01 | 0.38 | 0.38 | 1 | 1007.8 |
| 20260507021540 | 46 | 360 | 1.0 | 5.0 | 0.02 | 0.37 | 0.37 | 1 | 1008.1 |
| 20260507020132 | 47 | 313 | 0.0 | 5.0 | 0.04 | 0.37 | 0.37 | 1 | 1008.1 |
| 20260507014555 | 47 | 313 | 0.0 | 5.0 | 0.05 | 0.37 | 0.37 | 1 | 1007.7 |
| 20260507013033 | 48 | 250 | 0.0 | 6.0 | 0.05 | 0.37 | 0.37 | 1 | 1007.6 |
| 20260507010015 | 50 | 304 | 1.0 | 3.0 | 0.04 | 0.33 | 0.33 | 1 | 1007.3 |
| 20260507004610 | 50 | 312 | 1.0 | 4.0 | 0.03 | 0.32 | 0.32 | 1 | 1007.0 |
| 20260507003028 | 51 | 284 | 0.0 | 7.0 | 0.03 | 0.32 | 0.32 | 1 | 1006.7 |
| 20260507001625 | 53 | 328 | 3.0 | 12.0 | 0.03 | 0.32 | 0.32 | 1 | 1006.4 |
| 20260507000038 | 57 | 327 | 1.0 | 10.0 | 0.00 | 0.28 | 0.28 | 1 | 1006.0 |
| 20260506234633 | 57 | 235 | 0.0 | 8.0 | 0.00 | 0.28 | 0.28 | 1 | 1005.4 |
| 20260506233057 | 57 | 239 | 1.0 | 4.0 | 0.00 | 0.28 | 0.28 | 1 | 1005.2 |
| 20260506231504 | 57 | 186 | 0.0 | 6.0 | 0.00 | 0.28 | 0.28 | 1 | 1005.1 |
| 20260506230103 | 57 | 236 | 1.0 | 8.0 | 0.00 | 0.28 | 0.28 | 1 | 1005.1 |
| 20260506224517 | 57 | 246 | 1.0 | 4.0 | 0.00 | 0.28 | 0.28 | 1 | 1004.9 |
| 20260506223113 | 57 | 225 | 1.0 | 3.0 | 0.01 | 0.28 | 0.28 | 1 | 1004.9 |
| 20260506221532 | 57 | 221 | 0.0 | 2.0 | 0.04 | 0.28 | 0.28 | 1 | 1004.9 |
| 20260506214542 | 57 | 221 | 0.0 | 3.0 | 0.07 | 0.28 | 0.28 | 1 | 1005.0 |
| 20260506213003 | 57 | 186 | 0.0 | 2.0 | 0.05 | 0.27 | 0.27 | 1 | 1004.8 |
| 20260506211609 | 57 | 185 | 0.0 | 6.0 | 0.04 | 0.25 | 0.25 | 1 | 1004.9 |
| 20260506210021 | 57 | 196 | 0.0 | 4.0 | 0.02 | 0.22 | 0.22 | 1 | 1004.9 |
| 20260506204602 | 57 | 234 | 1.0 | 9.0 | 0.04 | 0.22 | 0.22 | 1 | 1004.9 |
| 20260506203018 | 57 | 199 | 1.0 | 3.0 | 0.04 | 0.22 | 0.22 | 1 | 1005.0 |
| 20260506201614 | 57 | 212 | 1.0 | 4.0 | 0.04 | 0.21 | 0.21 | 1 | 1005.1 |
| 20260506200039 | 57 | 188 | 1.0 | 7.0 | 0.05 | 0.20 | 0.20 | 1 | 1005.2 |